Home   Weather   Campinas   Past weeks

Flag for Brazil Past Weather in Campinas, São Paulo, Brazil — Yesterday and Last 2 Weeks

Now
77 °F

Broken clouds.


Feels Like: 79 °F
Forecast: 65 / 77 °F
Wind: 14 mph from Northwest

Location: Campinas Aeroporto

Current Time: Dec 4, 2016 at 12:33:00 pm

Latest Report: Dec 4, 2016 at 12:00 pm


Visibility: N/A

Pressure: 29.80 "Hg (27.55 "Hg at 686m altitude)

Humidity: 61%

Dew Point: 63 °F

Location of CampinasLocation

Past Weather in Campinas — Graph

°F

Campinas Temperature Yesterday

Maximum temperature yesterday: 88 °F (at 2:00 pm)
Minimum temperature yesterday: 48 °F (at 4:00 pm)
Average temperature yesterday: 72 °F

High & Low Weather Summary for the Past Weeks

 TemperatureHumidityPressure
High91 °F (Nov 26, 4:00 pm)100% (Nov 23, 8:00 am)30.15 "Hg (Nov 23, 8:00 am)
Low48 °F (Dec 3, 4:00 pm)21% (Nov 20, 6:00 pm)29.77 "Hg (Dec 4, 4:00 am)
Average73 °F60%30.00 "Hg
* Reported Nov 19 11:00 am — Dec 4 11:00 am, Campinas, Weather by CustomWeather, © 2016

Note: Actual official high and low records may vary slightly from our data, if they occured in-between our weather recording intervals... More about our weather records

Advertising

Campinas Weather History for the Previous 24 Hours

Scroll right to see more
 ConditionsComfort  
Time TempWeatherWind HumidityBarometerVisibility
11:00 am
Sun, Dec 4
77 °FBroken clouds.14 mph65%29.83 "HgN/A
10:00 am73 °FPartly sunny.13 mph78%29.83 "HgN/A
9:00 am72 °FMostly cloudy.9 mph88%29.83 "HgN/A
8:00 am70 °FPartly sunny.8 mph94%29.80 "HgN/A
7:00 am68 °FPartly sunny.8 mph100%29.80 "HgN/A
6:00 am68 °FPassing clouds.9 mph100%29.77 "HgN/A
5:00 am68 °FPassing clouds.10 mph100%29.77 "HgN/A
4:00 am68 °FMostly cloudy.9 mph100%29.77 "HgN/A
3:00 am68 °FLight rain. Mostly cloudy.12 mph100%29.80 "HgN/A
2:00 am68 °FLight rain. Overcast.13 mph100%29.83 "HgN/A
1:00 am68 °FLight rain. Overcast.10 mph100%29.86 "HgN/A
12:00 am68 °FPartly cloudy.8 mph94%29.89 "HgN/A
11:00 pm
Sat, Dec 3
68 °FPartly cloudy.10 mph94%29.89 "HgN/A
10:00 pm68 °FPartly cloudy.13 mph94%29.86 "HgN/A
9:00 pm68 °FMostly cloudy.15 mph94%29.89 "HgN/A
8:00 pm68 °FMostly cloudy.10 mph94%29.89 "HgN/A
7:00 pm68 °FLight rain. Fog.8 mph100%29.89 "Hg3 mi
6:00 pm66 °FThunderstorms. Fog.13 mph100%29.92 "Hg3 mi
4:00 pm48 °FThunderstorms. More clouds than sun.6 mph100%29.89 "Hg4 mi
3:00 pm88 °FScattered clouds.13 mph35%29.86 "HgN/A
2:00 pm88 °FScattered clouds.14 mph35%29.89 "HgN/A
1:00 pm86 °FBroken clouds.12 mph40%29.92 "HgN/A
12:00 pm84 °FBroken clouds.12 mph43%29.95 "HgN/A
Weather by CustomWeather, © 2016

See weather overviewHow to use our weather pages